Flag for U.S.A. Weather past 2 weeks in Bakersfield, California, U.S.A.

Now
56 °F

Clear.


Feels Like: 54 °F
Forecast: 47 / 72 °F
Wind: 8 mph from West

Location: Meadows Field


UV Index: 7 (High)

Visibility: 10 mi


Pressure: 30.02 "Hg

Humidity: 40%

Dew point: 32 °F

Location of BakersfieldLocation

Historic Weather in Bakersfield

°F

Bakersfield temperature yesterday

Maximum temperature yesterday: 72 °F (at 2:54 PM)
Minimum temperature yesterday: 55 °F (at 6:54 AM)
Average temperature yesterday: 64 °F

Past Weeks' High & Low Weather Summary

 TemperatureHumidityPressure
High92 °F (Apr 8, 3:54 PM)65% (Apr 14, 6:54 AM)30.11 "Hg (Apr 14, 6:54 AM)
Low55 °F (Apr 22, 6:54 AM)8% (Apr 9, 3:54 PM)29.71 "Hg (Apr 11, 5:54 PM)
Average72 °F34%29.92 "Hg
* Reported Apr 7 11:54 PM — Apr 22 11:54 PM, Bakersfield, Weather by CustomWeather, © 2014

Note: Actual official high and low records may vary slightly from our data, if they occured in-between our weather recording intervals... More about our weather records

Advertising

Historic Weather Conditions — Data for Previous 24 hours

 ConditionsComfort  
Time TempWeatherWind HumidityBarometerVisibility
11:54 PM
Apr 22
56 °FClear.8 mph40%30.02 "Hg10 mi
10:54 PM57 °FClear.5 mph36%30.00 "Hg10 mi
9:54 PM59 °FClear.8 mph31%29.99 "Hg10 mi
8:54 PM62 °FClear.10 mph27%29.97 "Hg10 mi
7:54 PM65 °FSunny.10 mph23%29.95 "Hg10 mi
6:54 PM68 °FSunny.18 mph21%29.93 "Hg10 mi
5:54 PM71 °FSunny.18 mph16%29.94 "Hg10 mi
4:54 PM72 °FSunny.16 mph17%29.94 "Hg10 mi
3:54 PM71 °FSunny.17 mph17%29.96 "Hg10 mi
2:54 PM72 °FSunny.18 mph20%29.98 "Hg10 mi
1:54 PM70 °FPassing clouds.15 mph29%29.99 "Hg10 mi
12:54 PM70 °FPassing clouds.12 mph32%30.00 "Hg10 mi
11:54 AM67 °FBroken clouds.15 mph41%30.01 "Hg10 mi
10:54 AM67 °FPassing clouds.18 mph42%30.01 "Hg10 mi
9:54 AM66 °FPassing clouds.18 mph43%30.00 "Hg10 mi
8:54 AM62 °FSunny.17 mph38%29.99 "Hg10 mi
7:54 AM60 °FPartly sunny.8 mph38%29.99 "Hg10 mi
6:54 AM55 °FPassing clouds.8 mph44%29.98 "Hg10 mi
5:54 AM57 °FPassing clouds.9 mph37%29.94 "Hg10 mi
4:54 AM59 °FClear.7 mph38%29.92 "Hg10 mi
3:54 AM59 °FClear.No wind44%29.91 "Hg10 mi
2:54 AM63 °FClear.8 mph37%29.90 "Hg10 mi
1:54 AM65 °FClear.8 mph32%29.90 "Hg9 mi
12:54 AM68 °FClear.9 mph32%29.89 "Hg10 mi
Weather by CustomWeather, © 2014

See weather overview